• In Italy
  • List of Countries
  • For 7 days
  • Water Temperature
  • Satellite Maps
  • Weather Map
  • Weather Widgets
  • user-avatar
    Login

    Hourly Weather Kapan

    Today, 18 October, Wednesday

    Time Temperature Precipitation Wind Pressure Humidity
    00:00 +11°C° 0 mm 1 mps 687 mmHg 49%
    01:00 +10°C° 0 mm 1 mps 687 mmHg 50%
    02:00 +10°C° 0 mm 1 mps 687 mmHg 50%
    03:00 +10°C° 0 mm 1 mps 687 mmHg 53%
    04:00 +10°C° 0 mm 1 mps 687 mmHg 54%
    05:00 +10°C° 0 mm 1 mps 687 mmHg 54%
    06:00 +10°C° 0 mm 1 mps 687 mmHg 55%
    07:00 +12°C° 0 mm 1 mps 688 mmHg 50%
    08:00 +14°C° 0 mm 1 mps 688 mmHg 44%
    09:00 +16°C° 0 mm 1 mps 689 mmHg 39%
    10:00 +18°C° 0 mm 1 mps 689 mmHg 36%
    11:00 +18°C° 0 mm 2 mps 689 mmHg 34%
    12:00 +19°C° 0 mm 2 mps 689 mmHg 32%
    13:00 +19°C° 0 mm 2 mps 689 mmHg 32%
    14:00 +19°C° 0 mm 2 mps 689 mmHg 32%
    15:00 +19°C° 0 mm 3 mps 689 mmHg 33%
    16:00 +17°C° 0 mm 2 mps 689 mmHg 39%
    17:00 +15°C° 0 mm 2 mps 689 mmHg 46%
    18:00 +14°C° 0 mm 1 mps 689 mmHg 52%
    19:00 +13°C° 0 mm 1 mps 689 mmHg 56%
    20:00 +13°C° 0 mm 1 mps 689 mmHg 59%
    21:00 +12°C° 0 mm 1 mps 689 mmHg 62%
    22:00 +12°C° 0 mm 1 mps 689 mmHg 64%
    23:00 +12°C° 0 mm 1 mps 689 mmHg 66%

    Tomorrow, 19 October, Thursday

    Time Temperature Precipitation Wind Pressure Humidity
    00:00 +11°C° 0 mm 1 mps 689 mmHg 68%
    01:00 +11°C° 0 mm 1 mps 689 mmHg 69%
    02:00 +11°C° 0 mm 1 mps 689 mmHg 71%
    03:00 +11°C° 0 mm 1 mps 689 mmHg 73%
    04:00 +10°C° 0 mm 1 mps 689 mmHg 74%
    05:00 +10°C° 0 mm 1 mps 689 mmHg 76%
    06:00 +10°C° 0 mm 1 mps 688 mmHg 78%
    07:00 +12°C° 0 mm 1 mps 689 mmHg 71%
    08:00 +13°C° 0 mm 1 mps 689 mmHg 64%
    09:00 +15°C° 0 mm 1 mps 690 mmHg 57%
    10:00 +16°C° 0 mm 2 mps 689 mmHg 52%
    11:00 +17°C° 0 mm 2 mps 689 mmHg 47%
    12:00 +18°C° 0 mm 2 mps 689 mmHg 42%
    13:00 +18°C° 0 mm 2 mps 689 mmHg 42%
    14:00 +19°C° 0 mm 2 mps 688 mmHg 42%
    15:00 +19°C° 0 mm 2 mps 688 mmHg 42%
    16:00 +17°C° 0 mm 2 mps 687 mmHg 49%
    17:00 +16°C° 0 mm 1 mps 687 mmHg 56%
    18:00 +14°C° 0 mm 1 mps 687 mmHg 63%
    19:00 +14°C° 0 mm 1 mps 687 mmHg 64%
    20:00 +12°C° 0 mm 0 mps 687 mmHg 64%
    21:00 +12°C° 0 mm 0 mps 687 mmHg 64%
    22:00 +12°C° 0 mm 0 mps 687 mmHg 62%
    23:00 +12°C° 0 mm 1 mps 686 mmHg 60%

    Day after tomorrow, 20 October, Friday

    Time Temperature Precipitation Wind Pressure Humidity
    00:00 +12°C° 0 mm 1 mps 686 mmHg 57%
    01:00 +12°C° 0 mm 1 mps 686 mmHg 55%
    02:00 +12°C° 0 mm 1 mps 686 mmHg 52%
    03:00 +12°C° 0 mm 1 mps 686 mmHg 50%
    04:00 +11°C° 0 mm 1 mps 685 mmHg 49%
    05:00 +11°C° 0 mm 1 mps 685 mmHg 47%
    06:00 +11°C° 0 mm 1 mps 685 mmHg 46%
    07:00 +13°C° 0 mm 1 mps 686 mmHg 42%
    08:00 +15°C° 0 mm 1 mps 686 mmHg 38%
    09:00 +18°C° 0 mm 1 mps 687 mmHg 33%
    10:00 +19°C° 0 mm 1 mps 687 mmHg 31%
    11:00 +19°C° 0 mm 2 mps 687 mmHg 28%
    12:00 +20°C° 0 mm 2 mps 686 mmHg 26%
    13:00 +20°C° 0 mm 2 mps 686 mmHg 27%
    14:00 +20°C° 0 mm 2 mps 686 mmHg 27%
    15:00 +20°C° 0 mm 2 mps 685 mmHg 27%
    16:00 +18°C° 0 mm 2 mps 685 mmHg 34%
    17:00 +18°C° 0 mm 1 mps 685 mmHg 40%
    18:00 +14°C° 0 mm 0 mps 685 mmHg 46%
    19:00 +13°C° 0 mm 0 mps 685 mmHg 47%
    20:00 +14°C° 0 mm 1 mps 685 mmHg 48%
    21:00 +13°C° 0 mm 1 mps 685 mmHg 49%
    22:00 +13°C° 0 mm 1 mps 685 mmHg 48%
    23:00 +13°C° 0 mm 1 mps 685 mmHg 47%

    21 October, Saturday

    Time Temperature Precipitation Wind Pressure Humidity
    00:00 +13°C° 0 mm 1 mps 685 mmHg 46%
    01:00 +13°C° 0 mm 1 mps 685 mmHg 45%
    02:00 +12°C° 0 mm 1 mps 685 mmHg 44%
    03:00 +12°C° 0 mm 1 mps 685 mmHg 43%
    04:00 +12°C° 0 mm 1 mps 685 mmHg 43%
    05:00 +12°C° 0 mm 1 mps 685 mmHg 43%
    06:00 +11°C° 0 mm 1 mps 685 mmHg 42%
    07:00 +13°C° 0 mm 1 mps 685 mmHg 38%
    08:00 +15°C° 0 mm 1 mps 686 mmHg 34%
    09:00 +18°C° 0 mm 1 mps 686 mmHg 30%
    10:00 +19°C° 0 mm 1 mps 686 mmHg 28%
    11:00 +19°C° 0 mm 2 mps 685 mmHg 26%
    12:00 +20°C° 0 mm 2 mps 685 mmHg 25%
    13:00 +20°C° 0 mm 2 mps 685 mmHg 25%
    14:00 +20°C° 0 mm 2 mps 684 mmHg 25%
    15:00 +20°C° 0 mm 2 mps 684 mmHg 26%
    16:00 +18°C° 0 mm 2 mps 684 mmHg 31%
    17:00 +18°C° 0 mm 1 mps 684 mmHg 37%
    18:00 +15°C° 0 mm 1 mps 683 mmHg 43%
    19:00 +14°C° 0 mm 1 mps 683 mmHg 44%
    20:00 +13°C° 0 mm 0 mps 683 mmHg 46%
    21:00 +12°C° 0 mm 0 mps 684 mmHg 47%
    22:00 +13°C° 0 mm 1 mps 683 mmHg 46%
    23:00 +13°C° 0 mm 1 mps 683 mmHg 46%

    22 October, Sunday

    Time Temperature Precipitation Wind Pressure Humidity
    00:00 +13°C° 0 mm 1 mps 683 mmHg 45%
    01:00 +12°C° 0 mm 1 mps 683 mmHg 45%
    02:00 +12°C° 0 mm 1 mps 683 mmHg 44%
    03:00 +12°C° 0 mm 1 mps 683 mmHg 44%
    04:00 +11°C° 0 mm 1 mps 683 mmHg 44%
    05:00 +11°C° 0 mm 1 mps 683 mmHg 45%
    06:00 +11°C° 0 mm 1 mps 684 mmHg 46%
    07:00 +13°C° 0 mm 1 mps 684 mmHg 42%
    08:00 +15°C° 0 mm 1 mps 685 mmHg 38%
    09:00 +16°C° 0 mm 1 mps 686 mmHg 35%
    10:00 +17°C° 0 mm 2 mps 685 mmHg 33%
    11:00 +18°C° 0 mm 2 mps 685 mmHg 31%
    12:00 +19°C° 0 mm 3 mps 685 mmHg 30%
    13:00 +19°C° 0 mm 3 mps 685 mmHg 31%
    14:00 +19°C° 0 mm 3 mps 685 mmHg 33%
    15:00 +18°C° 0 mm 3 mps 685 mmHg 34%
    16:00 +17°C° 0 mm 3 mps 685 mmHg 44%
    17:00 +15°C° 0 mm 2 mps 685 mmHg 55%
    18:00 +14°C° 0 mm 2 mps 685 mmHg 65%
    19:00 +13°C° 0 mm 2 mps 685 mmHg 71%
    20:00 +13°C° 0 mm 2 mps 685 mmHg 78%
    21:00 +12°C° 0 mm 2 mps 686 mmHg 84%
    22:00 +12°C° 0 mm 2 mps 686 mmHg 85%
    23:00 +12°C° 0 mm 2 mps 686 mmHg 86%

    23 October, Monday

    Time Temperature Precipitation Wind Pressure Humidity
    00:00 +12°C° 0 mm 2 mps 686 mmHg 86%
    01:00 +10°C° 0 mm 2 mps 686 mmHg 87%
    02:00 +10°C° 0 mm 2 mps 686 mmHg 87%
    03:00 +10°C° 0 mm 2 mps 686 mmHg 87%
    04:00 +10°C° 0 mm 2 mps 686 mmHg 87%
    05:00 +9°C° 0 mm 2 mps 686 mmHg 87%
    06:00 +9°C° 0 mm 2 mps 686 mmHg 87%
    07:00 +10°C° 0 mm 2 mps 687 mmHg 79%
    08:00 +12°C° 0 mm 2 mps 687 mmHg 72%
    09:00 +13°C° 0 mm 2 mps 687 mmHg 65%
    10:00 +14°C° 0 mm 2 mps 687 mmHg 60%
    11:00 +15°C° 0 mm 2 mps 687 mmHg 55%
    12:00 +16°C° 0 mm 2 mps 686 mmHg 50%
    13:00 +16°C° 0 mm 2 mps 686 mmHg 50%
    14:00 +16°C° 0 mm 2 mps 685 mmHg 51%
    15:00 +16°C° 0 mm 2 mps 685 mmHg 51%
    16:00 +15°C° 0 mm 2 mps 685 mmHg 57%
    17:00 +14°C° 0 mm 2 mps 685 mmHg 62%
    18:00 +13°C° 0 mm 1 mps 685 mmHg 68%
    19:00 +13°C° 0 mm 1 mps 685 mmHg 68%
    20:00 +13°C° 0 mm 1 mps 685 mmHg 68%
    21:00 +13°C° 0 mm 1 mps 685 mmHg 69%
    22:00 +13°C° 0 mm 1 mps 685 mmHg 68%
    23:00 +13°C° 0 mm 1 mps 685 mmHg 67%
    Show more